This is the latest recevied weather packets stored in our database for station/object KJ4OVR-WX. If no packets are shown the sender has not sent any weather packets the latest 10 day(s).
| Time | Temp. | Humidity | Pressure | Rain* | Wind** | Luminosity | Snow |
|---|---|---|---|---|---|---|---|
| 1778093739 | 17.78° C | 93% | 1013.2 hPa | 0 mm | - | - | - |
| 1778093439 | 17.78° C | 93% | 1013.1 hPa | 0 mm | - | - | - |
| 1778093214 | 17.78° C | 93% | 1013.1 hPa | 0 mm | - | - | - |
| 1778092839 | 17.78° C | 93% | 1012.8 hPa | 0 mm | - | - | - |
| 1778092540 | 17.78° C | 93% | 1012.9 hPa | 0 mm | - | - | - |
| 1778092240 | 17.78° C | 93% | 1013 hPa | 0 mm | - | - | - |
| 1778091939 | 17.22° C | 93% | 1012.9 hPa | 0 mm | - | - | - |
| 1778091639 | 17.78° C | 93% | 1013.9 hPa | 0 mm | - | - | - |
| 1778091339 | 17.78° C | 93% | 1014.4 hPa | 0 mm | - | - | - |
| 1778091040 | 17.78° C | 93% | 1013.8 hPa | 0 mm | - | - | - |
| 1778090740 | 17.78° C | 93% | 1013 hPa | 0 mm | - | - | - |
| 1778090440 | 17.78° C | 93% | 1012.8 hPa | 0 mm | - | - | - |
| 1778090140 | 18.33° C | 92% | 1012.7 hPa | 0 mm | - | - | - |
| 1778089840 | 18.33° C | 92% | 1012.8 hPa | 0 mm | - | - | - |
| 1778089540 | 18.33° C | 92% | 1012.9 hPa | 0 mm | - | - | - |
| 1778089240 | 18.33° C | 92% | 1012.6 hPa | 0 mm | - | - | - |
| 1778088940 | 18.89° C | 92% | 1013.4 hPa | 0 mm | - | - | - |
| 1778088641 | 18.89° C | 92% | 1013.2 hPa | 0 mm | - | - | - |
| 1778088340 | 18.89° C | 92% | 1013.1 hPa | 0 mm | - | - | - |
| 1778088040 | 18.89° C | 91% | 1013 hPa | 0 mm | - | - | - |
| 1778087741 | 18.89° C | 90% | 1013.3 hPa | 0 mm | - | - | - |
| 1778087441 | 19.44° C | 90% | 1013.6 hPa | 0 mm | - | - | - |
| 1778087141 | 20° C | 90% | 1014 hPa | 0 mm | - | - | - |
| 1778086901 | 20° C | 90% | 1013.6 hPa | 0 mm | - | - | - |
| 1778086541 | 20.56° C | 90% | 1013.4 hPa | 0 mm | - | - | - |
* Rain latest hour (hover to see other rain measurements)
** Current wind speed in m/s (hover to see current wind gust speed)